| time (UTC) | temp F | wind direction | speed MPH | gust MPH | rain 1hr in | rain 24hr in | rain mn in | humidity % | barometer mb |
| 20260506114508 | 50 | 2 | 3.0 | 7.0 | 0.00 | 0.00 | 0.00 | 53 | 1015.3 |
| 20260506114005 | 50 | 346 | 1.0 | 4.0 | 0.00 | 0.00 | 0.00 | 54 | 1015.2 |
| 20260506113506 | 50 | 89 | 2.0 | 6.0 | 0.00 | 0.00 | 0.00 | 54 | 1015.3 |
| 20260506113014 | 50 | 251 | 1.0 | 11.0 | 0.00 | 0.00 | 0.00 | 54 | 1015.3 |
| 20260506112504 | 51 | 354 | 2.0 | 19.0 | 0.00 | 0.00 | 0.00 | 51 | 1015.3 |
| 20260506112006 | 53 | 45 | 3.0 | 19.0 | 0.00 | 0.00 | 0.00 | 49 | 1015.2 |
| 20260506111526 | 52 | 195 | 1.0 | 4.0 | 0.00 | 0.00 | 0.00 | 44 | 1015.2 |
| 20260506111003 | 52 | 167 | 1.0 | 3.0 | 0.00 | 0.00 | 0.00 | 44 | 1015.2 |
| 20260506110503 | 51 | 255 | 1.0 | 6.0 | 0.00 | 0.00 | 0.00 | 50 | 1015.2 |
| 20260506110004 | 51 | 259 | 1.0 | 6.0 | 0.00 | 0.00 | 0.00 | 46 | 1015.3 |
| 20260506105503 | 52 | 218 | 2.0 | 5.0 | 0.00 | 0.00 | 0.00 | 46 | 1015.3 |
| 20260506105006 | 52 | 198 | 2.0 | 5.0 | 0.00 | 0.00 | 0.00 | 46 | 1015.3 |
| 20260506104507 | 53 | 230 | 0.0 | 4.0 | 0.00 | 0.00 | 0.00 | 50 | 1015.3 |
| 20260506104005 | 52 | 323 | 2.0 | 4.0 | 0.00 | 0.00 | 0.00 | 48 | 1015.2 |
| 20260506103503 | 52 | 212 | 1.0 | 4.0 | 0.00 | 0.00 | 0.00 | 50 | 1015.2 |
| 20260506103011 | 51 | 231 | 2.0 | 5.0 | 0.00 | 0.00 | 0.00 | 51 | 1015.3 |
| 20260506102503 | 51 | 229 | 2.0 | 6.0 | 0.00 | 0.00 | 0.00 | 53 | 1015.3 |
| 20260506101517 | 50 | 200 | 0.0 | 5.0 | 0.00 | 0.00 | 0.00 | 58 | 1015.4 |
| 20260506101006 | 50 | 204 | 2.0 | 5.0 | 0.00 | 0.00 | 0.00 | 58 | 1015.4 |
| 20260506100507 | 49 | 205 | 2.0 | 5.0 | 0.00 | 0.00 | 0.00 | 56 | 1015.5 |
| 20260506100018 | 49 | 210 | 1.0 | 5.0 | 0.00 | 0.00 | 0.00 | 59 | 1015.6 |
| 20260506095503 | 49 | 255 | 2.0 | 5.0 | 0.00 | 0.00 | 0.00 | 58 | 1015.7 |
| 20260506095004 | 48 | 99 | 0.0 | 5.0 | 0.00 | 0.00 | 0.00 | 62 | 1015.7 |
| 20260506094506 | 47 | 205 | 1.0 | 5.0 | 0.00 | 0.00 | 0.00 | 62 | 1015.7 |
| 20260506094003 | 47 | 35 | 2.0 | 4.0 | 0.00 | 0.00 | 0.00 | 60 | 1015.8 |
| 20260506093502 | 47 | 301 | 2.0 | 3.0 | 0.00 | 0.00 | 0.00 | 62 | 1015.9 |
| 20260506093006 | 47 | 52 | 0.0 | 4.0 | 0.00 | 0.00 | 0.00 | 62 | 1015.9 |
| 20260506092504 | 46 | 24 | 2.0 | 4.0 | 0.00 | 0.00 | 0.00 | 60 | 1016.0 |
| 20260506092007 | 47 | 6 | 1.0 | 3.0 | 0.00 | 0.00 | 0.00 | 61 | 1016.0 |
| 20260506091514 | 47 | 196 | 2.0 | 3.0 | 0.00 | 0.00 | 0.00 | 60 | 1016.0 |
| 20260506091010 | 46 | 224 | 1.0 | 3.0 | 0.00 | 0.00 | 0.00 | 61 | 1016.1 |
| 20260506090506 | 46 | 261 | 0.0 | 4.0 | 0.00 | 0.00 | 0.00 | 63 | 1016.2 |
| 20260506090017 | 46 | 197 | 2.0 | 4.0 | 0.00 | 0.00 | 0.00 | 61 | 1016.2 |
| 20260506085505 | 46 | 281 | 0.0 | 3.0 | 0.00 | 0.00 | 0.00 | 63 | 1016.3 |
| 20260506085006 | 46 | 268 | 1.0 | 5.0 | 0.00 | 0.00 | 0.00 | 63 | 1016.3 |
| 20260506084533 | 45 | 198 | 1.0 | 5.0 | 0.00 | 0.00 | 0.00 | 62 | 1016.4 |
| 20260506084010 | 45 | 239 | 1.0 | 3.0 | 0.00 | 0.00 | 0.00 | 63 | 1016.4 |
| 20260506083504 | 45 | 245 | 1.0 | 3.0 | 0.00 | 0.00 | 0.00 | 63 | 1016.4 |
| 20260506083015 | 45 | 255 | 0.0 | 5.0 | 0.00 | 0.00 | 0.00 | 64 | 1016.4 |
| 20260506082505 | 45 | 268 | 0.0 | 5.0 | 0.00 | 0.00 | 0.00 | 63 | 1016.5 |
| 20260506082003 | 45 | 283 | 1.0 | 3.0 | 0.00 | 0.00 | 0.00 | 63 | 1016.4 |
| 20260506081506 | 44 | 258 | 1.0 | 4.0 | 0.00 | 0.00 | 0.00 | 64 | 1016.5 |
| 20260506081011 | 44 | 239 | 2.0 | 4.0 | 0.00 | 0.00 | 0.00 | 64 | 1016.5 |
| 20260506080506 | 44 | 214 | 1.0 | 4.0 | 0.00 | 0.00 | 0.00 | 64 | 1016.5 |
| 20260506073509 | 43 | 249 | 1.0 | 4.0 | 0.00 | 0.00 | 0.00 | 67 | 1016.6 |
| 20260506073023 | 43 | 210 | 1.0 | 4.0 | 0.00 | 0.00 | 0.00 | 69 | 1016.6 |
| 20260506072507 | 43 | 244 | 3.0 | 4.0 | 0.00 | 0.00 | 0.00 | 69 | 1016.6 |
| 20260506072010 | 43 | 250 | 1.0 | 3.0 | 0.00 | 0.00 | 0.00 | 70 | 1016.7 |
| 20260506071506 | 42 | 245 | 1.0 | 2.0 | 0.00 | 0.00 | 0.00 | 72 | 1016.6 |
| 20260506070504 | 42 | 210 | 0.0 | 2.0 | 0.00 | 0.00 | 0.00 | 73 | 1016.6 |
| 20260506062513 | 37 | 8 | 0.0 | 0.0 | 0.00 | 0.00 | 0.00 | 85 | 1016.6 |
| 20260506061010 | 36 | 7 | 0.0 | 1.0 | 0.00 | 0.00 | 0.00 | 88 | 1016.5 |
| 20260506060509 | 36 | 7 | 0.0 | 1.0 | 0.00 | 0.00 | 0.00 | 89 | 1016.5 |
| 20260506050502 | 31 | 53 | 0.0 | 0.0 | 0.00 | 0.00 | 0.00 | 92 | 1016.8 |
| 20260506045002 | 31 | 54 | 0.0 | 1.0 | 0.00 | 0.00 | 0.00 | 92 | 1017.0 |
| 20260506044514 | 31 | 54 | 0.0 | 1.0 | 0.00 | 0.00 | 0.00 | 92 | 1017.1 |
| 20260506044003 | 30 | 274 | 0.0 | 0.0 | 0.00 | 0.01 | 0.00 | 92 | 1017.1 |
| 20260506043503 | 30 | 274 | 0.0 | 0.0 | 0.00 | 0.01 | 0.00 | 92 | 1017.0 |
| 20260506043015 | 30 | 274 | 0.0 | 0.0 | 0.00 | 0.01 | 0.00 | 92 | 1017.0 |
| 20260506040503 | 30 | 274 | 0.0 | 0.0 | 0.00 | 0.01 | 0.00 | 92 | 1016.9 |
| 20260506034004 | 29 | 274 | 0.0 | 0.0 | 0.00 | 0.01 | 0.00 | 91 | 1017.2 |
| 20260506033503 | 28 | 274 | 0.0 | 0.0 | 0.00 | 0.01 | 0.00 | 91 | 1017.3 |
| 20260506033007 | 28 | 274 | 0.0 | 0.0 | 0.00 | 0.01 | 0.00 | 91 | 1017.3 |
| 20260506030021 | 29 | 274 | 0.0 | 0.0 | 0.00 | 0.01 | 0.00 | 90 | 1017.3 |
| 20260506014522 | 30 | 274 | 0.0 | 0.0 | 0.00 | 0.01 | 0.00 | 89 | 1017.5 |
| 20260506014006 | 30 | 274 | 0.0 | 0.0 | 0.00 | 0.02 | 0.00 | 90 | 1017.5 |
| 20260506011518 | 31 | 245 | 0.0 | 0.0 | 0.00 | 0.02 | 0.00 | 89 | 1017.4 |
| 20260506004006 | 31 | 245 | 0.0 | 0.0 | 0.00 | 0.02 | 0.00 | 89 | 1017.7 |
| 20260506001521 | 32 | 245 | 0.0 | 0.0 | 0.00 | 0.03 | 0.00 | 88 | 1017.8 |
| 20260506001007 | 32 | 245 | 0.0 | 0.0 | 0.00 | 0.03 | 0.00 | 88 | 1017.9 |
| 20260506000504 | 32 | 245 | 0.0 | 0.0 | 0.00 | 0.03 | 0.00 | 87 | 1017.8 |
| 20260506000007 | 32 | 245 | 0.0 | 0.0 | 0.00 | 0.03 | 0.00 | 87 | 1017.9 |
| 20260505233503 | 33 | 245 | 0.0 | 0.0 | 0.00 | 0.03 | 0.00 | 87 | 1018.0 |
| 20260505230005 | 35 | 191 | 0.0 | 0.0 | 0.00 | 0.03 | 0.00 | 86 | 1018.3 |
| 20260505223504 | 35 | 186 | 0.0 | 1.0 | 0.00 | 0.03 | 0.03 | 86 | 1018.3 |
| 20260505223003 | 36 | 186 | 0.0 | 1.0 | 0.00 | 0.03 | 0.03 | 86 | 1018.3 |
| 20260505220502 | 36 | 184 | 0.0 | 0.0 | 0.00 | 0.03 | 0.03 | 85 | 1018.4 |
| 20260505220008 | 36 | 184 | 0.0 | 0.0 | 0.00 | 0.03 | 0.03 | 84 | 1018.4 |
| 20260505215503 | 36 | 184 | 0.0 | 0.0 | 0.00 | 0.03 | 0.03 | 84 | 1018.4 |
| 20260505215003 | 37 | 184 | 0.0 | 0.0 | 0.00 | 0.03 | 0.03 | 84 | 1018.5 |
| 20260505214503 | 37 | 184 | 0.0 | 0.0 | 0.00 | 0.03 | 0.03 | 84 | 1018.5 |
| 20260505214003 | 37 | 58 | 0.0 | 1.0 | 0.00 | 0.03 | 0.03 | 83 | 1018.5 |
| 20260505213503 | 37 | 58 | 0.0 | 1.0 | 0.00 | 0.03 | 0.03 | 82 | 1018.5 |
| 20260505213003 | 37 | 58 | 0.0 | 0.0 | 0.00 | 0.03 | 0.03 | 82 | 1018.5 |
| 20260505212503 | 37 | 58 | 0.0 | 1.0 | 0.00 | 0.03 | 0.03 | 82 | 1018.4 |
| 20260505212003 | 38 | 57 | 0.0 | 1.0 | 0.00 | 0.03 | 0.03 | 81 | 1018.4 |
| 20260505211503 | 38 | 57 | 0.0 | 0.0 | 0.00 | 0.03 | 0.03 | 80 | 1018.4 |
| 20260505211003 | 38 | 57 | 0.0 | 1.0 | 0.00 | 0.03 | 0.03 | 80 | 1018.5 |
| 20260505210502 | 39 | 57 | 0.0 | 1.0 | 0.00 | 0.03 | 0.03 | 79 | 1018.4 |
| 20260505210004 | 39 | 61 | 0.0 | 1.0 | 0.00 | 0.03 | 0.03 | 79 | 1018.5 |
| 20260505205506 | 39 | 131 | 0.0 | 1.0 | 0.00 | 0.03 | 0.03 | 78 | 1018.5 |
| 20260505205004 | 40 | 136 | 0.0 | 3.0 | 0.00 | 0.03 | 0.03 | 78 | 1018.4 |
| 20260505204506 | 40 | 6 | 0.0 | 4.0 | 0.00 | 0.03 | 0.03 | 77 | 1018.5 |
| 20260505204003 | 40 | 27 | 0.0 | 4.0 | 0.00 | 0.03 | 0.03 | 76 | 1018.5 |
| 20260505203502 | 41 | 65 | 1.0 | 3.0 | 0.00 | 0.03 | 0.03 | 75 | 1018.4 |
| 20260505203004 | 41 | 132 | 0.0 | 3.0 | 0.00 | 0.03 | 0.03 | 74 | 1018.5 |
| 20260505202504 | 41 | 11 | 0.0 | 3.0 | 0.00 | 0.04 | 0.03 | 74 | 1018.5 |
| 20260505202004 | 41 | 39 | 0.0 | 1.0 | 0.00 | 0.04 | 0.03 | 72 | 1018.4 |
| 20260505201504 | 41 | 124 | 0.0 | 0.0 | 0.00 | 0.05 | 0.03 | 71 | 1018.3 |
| 20260505201003 | 42 | 124 | 0.0 | 1.0 | 0.00 | 0.05 | 0.03 | 71 | 1018.4 |
| 20260505200503 | 42 | 124 | 0.0 | 1.0 | 0.00 | 0.05 | 0.03 | 70 | 1018.5 |
| 20260505200008 | 42 | 124 | 0.0 | 1.0 | 0.00 | 0.05 | 0.03 | 70 | 1018.6 |
| 20260505195503 | 42 | 124 | 0.0 | 1.0 | 0.00 | 0.05 | 0.03 | 70 | 1018.5 |
| 20260505195003 | 43 | 123 | 0.0 | 1.0 | 0.00 | 0.06 | 0.03 | 70 | 1018.5 |
| 20260505194505 | 43 | 73 | 0.0 | 1.0 | 0.00 | 0.07 | 0.03 | 69 | 1018.5 |
| 20260505194004 | 43 | 354 | 0.0 | 1.0 | 0.00 | 0.07 | 0.03 | 69 | 1018.5 |
| 20260505193503 | 43 | 354 | 0.0 | 1.0 | 0.00 | 0.07 | 0.03 | 69 | 1018.4 |
| 20260505193004 | 43 | 108 | 0.0 | 1.0 | 0.00 | 0.07 | 0.03 | 68 | 1018.3 |
| 20260505192501 | 43 | 106 | 0.0 | 1.0 | 0.00 | 0.07 | 0.03 | 67 | 1018.3 |
| 20260505192002 | 44 | 118 | 0.0 | 1.0 | 0.00 | 0.07 | 0.03 | 67 | 1018.3 |
| 20260505191521 | 44 | 124 | 0.0 | 1.0 | 0.00 | 0.07 | 0.03 | 66 | 1018.3 |
| 20260505191003 | 44 | 20 | 0.0 | 1.0 | 0.00 | 0.07 | 0.03 | 65 | 1018.2 |
| 20260505190504 | 44 | 340 | 0.0 | 1.0 | 0.00 | 0.07 | 0.03 | 64 | 1018.3 |
| 20260505190008 | 44 | 103 | 0.0 | 1.0 | 0.00 | 0.07 | 0.03 | 65 | 1018.2 |
| 20260505185503 | 45 | 9 | 0.0 | 1.0 | 0.00 | 0.07 | 0.03 | 65 | 1018.2 |
| 20260505185004 | 45 | 10 | 0.0 | 1.0 | 0.00 | 0.07 | 0.03 | 66 | 1018.2 |
| 20260505184508 | 45 | 9 | 0.0 | 2.0 | 0.00 | 0.07 | 0.03 | 65 | 1018.2 |
| 20260505184002 | 45 | 145 | 0.0 | 2.0 | 0.00 | 0.07 | 0.03 | 66 | 1018.2 |
| 20260505183503 | 45 | 12 | 0.0 | 3.0 | 0.00 | 0.07 | 0.03 | 65 | 1018.3 |
| 20260505183008 | 45 | 134 | 0.0 | 4.0 | 0.00 | 0.09 | 0.03 | 65 | 1018.3 |
| 20260505182503 | 45 | 108 | 1.0 | 4.0 | 0.00 | 0.11 | 0.03 | 63 | 1018.4 |
| 20260505182003 | 45 | 302 | 0.0 | 5.0 | 0.00 | 0.11 | 0.03 | 63 | 1018.5 |
| 20260505181506 | 45 | 122 | 0.0 | 5.0 | 0.00 | 0.11 | 0.03 | 63 | 1018.5 |
| 20260505181004 | 45 | 246 | 0.0 | 3.0 | 0.00 | 0.11 | 0.03 | 60 | 1018.5 |
| 20260505180502 | 45 | 67 | 1.0 | 3.0 | 0.00 | 0.11 | 0.03 | 60 | 1018.5 |
| 20260505180008 | 45 | 7 | 1.0 | 4.0 | 0.00 | 0.11 | 0.03 | 57 | 1018.6 |
| 20260505175504 | 46 | 136 | 1.0 | 4.0 | 0.00 | 0.11 | 0.03 | 56 | 1018.5 |
| 20260505175004 | 46 | 57 | 1.0 | 4.0 | 0.00 | 0.11 | 0.03 | 55 | 1018.4 |
| 20260505174005 | 46 | 25 | 1.0 | 4.0 | 0.00 | 0.11 | 0.03 | 55 | 1018.2 |
| 20260505173506 | 46 | 18 | 0.0 | 4.0 | 0.00 | 0.11 | 0.03 | 56 | 1018.3 |
| 20260505173011 | 46 | 34 | 1.0 | 4.0 | 0.00 | 0.11 | 0.03 | 55 | 1018.3 |
| 20260505172502 | 46 | 166 | 1.0 | 4.0 | 0.00 | 0.11 | 0.03 | 56 | 1018.2 |
| 20260505172002 | 47 | 14 | 3.0 | 4.0 | 0.00 | 0.11 | 0.03 | 53 | 1018.2 |
| 20260505171003 | 47 | 86 | 1.0 | 3.0 | 0.00 | 0.11 | 0.03 | 55 | 1018.1 |
| 20260505170505 | 47 | 343 | 0.0 | 4.0 | 0.00 | 0.11 | 0.03 | 54 | 1018.2 |
| 20260505170004 | 48 | 346 | 1.0 | 4.0 | 0.00 | 0.11 | 0.03 | 52 | 1018.2 |
| 20260505165503 | 48 | 64 | 1.0 | 4.0 | 0.00 | 0.11 | 0.03 | 52 | 1018.2 |
| 20260505165004 | 48 | 130 | 0.0 | 6.0 | 0.00 | 0.11 | 0.03 | 53 | 1018.2 |
| 20260505164504 | 48 | 271 | 1.0 | 6.0 | 0.00 | 0.11 | 0.03 | 50 | 1018.2 |
| 20260505164003 | 49 | 344 | 3.0 | 6.0 | 0.00 | 0.11 | 0.03 | 48 | 1018.1 |
| 20260505163503 | 49 | 314 | 1.0 | 5.0 | 0.00 | 0.11 | 0.03 | 51 | 1018.1 |
| 20260505163009 | 48 | 125 | 1.0 | 5.0 | 0.00 | 0.11 | 0.03 | 52 | 1018.1 |
| 20260505162503 | 47 | 42 | 1.0 | 6.0 | 0.00 | 0.11 | 0.03 | 53 | 1018.2 |
| 20260505162004 | 47 | 84 | 2.0 | 6.0 | 0.00 | 0.11 | 0.03 | 51 | 1018.2 |
| 20260505161504 | 47 | 23 | 0.0 | 4.0 | 0.00 | 0.11 | 0.03 | 50 | 1018.1 |
| 20260505161003 | 47 | 347 | 1.0 | 6.0 | 0.00 | 0.11 | 0.03 | 49 | 1018.0 |
| 20260505160505 | 48 | 333 | 2.0 | 7.0 | 0.00 | 0.11 | 0.03 | 47 | 1018.0 |
| 20260505153013 | 48 | 344 | 3.0 | 6.0 | 0.00 | 0.11 | 0.03 | 44 | 1018.1 |
| 20260505152505 | 49 | 355 | 2.0 | 6.0 | 0.00 | 0.11 | 0.03 | 43 | 1018.1 |
| 20260505152002 | 50 | 6 | 4.0 | 7.0 | 0.00 | 0.11 | 0.03 | 42 | 1018.2 |
| 20260505151512 | 49 | 75 | 3.0 | 7.0 | 0.00 | 0.11 | 0.03 | 45 | 1018.2 |
| 20260505151006 | 50 | 166 | 2.0 | 5.0 | 0.00 | 0.11 | 0.03 | 42 | 1018.2 |
| 20260505150506 | 49 | 345 | 1.0 | 6.0 | 0.00 | 0.11 | 0.03 | 45 | 1018.1 |
| 20260505140505 | 48 | 344 | 0.0 | 8.0 | 0.00 | 0.11 | 0.03 | 54 | 1018.0 |
| 20260505125008 | 46 | 324 | 1.0 | 8.0 | 0.00 | 0.11 | 0.03 | 63 | 1018.0 |
| 20260505124517 | 46 | 93 | 3.0 | 8.0 | 0.00 | 0.11 | 0.03 | 59 | 1018.0 |
| 20260505124007 | 46 | 339 | 2.0 | 8.0 | 0.00 | 0.11 | 0.03 | 62 | 1018.0 |
| 20260505123508 | 46 | 168 | 3.0 | 8.0 | 0.00 | 0.11 | 0.03 | 61 | 1018.0 |
| 20260505123019 | 46 | 343 | 1.0 | 9.0 | 0.00 | 0.11 | 0.03 | 62 | 1018.0 |
| 20260505122506 | 45 | 66 | 3.0 | 9.0 | 0.00 | 0.11 | 0.03 | 60 | 1018.1 |
| 20260505122004 | 45 | 26 | 3.0 | 9.0 | 0.00 | 0.11 | 0.03 | 60 | 1018.0 |
| 20260505121518 | 45 | 334 | 3.0 | 9.0 | 0.00 | 0.11 | 0.03 | 59 | 1018.0 |
| 20260505121003 | 46 | 28 | 3.0 | 7.0 | 0.00 | 0.11 | 0.03 | 59 | 1018.0 |
| 20260505120502 | 45 | 8 | 1.0 | 7.0 | 0.00 | 0.11 | 0.03 | 60 | 1018.0 |
| 20260505120007 | 46 | 44 | 2.0 | 7.0 | 0.00 | 0.11 | 0.03 | 61 | 1018.0 |
| 20260505115505 | 46 | 36 | 2.0 | 6.0 | 0.00 | 0.11 | 0.03 | 62 | 1018.0 |
| 20260505115003 | 46 | 59 | 2.0 | 10.0 | 0.00 | 0.11 | 0.03 | 60 | 1018.0 |